Wind_Speed
116 116 116 117 117 116 117 117 117 118 118 118 119 119 119 119 120 120 119 118 116 114 113 112 110 108 108 108 108 107 104 101 99 99 99 100 99 98 98 97 96 96 95 94 94 93 93 92 91 91 90 89 88 87 86 85 84 84 84 83 83 83 82 82 81 81 79 78 78 77 77 76 76 77
118 118 118 119 119 119 119 119 120 120 120 121 121 121 121 121 121 122 122 121 118 116 115 114 113 111 110 110 110 111 109 106 104 102 101 101 102 102 101 100 99 98 98 97 97 96 96 95 94 94 93 92 91 90 89 87 87 86 86 85 84 85 85 84 83 83 82 81 80 79 79 78 78 78
117 117 118 118 118 119 119 120 120 120 121 121 121 121 122 122 122 123 124 124 122 119 118 117 116 114 112 112 112 113 113 111 108 106 105 104 104 105 104 103 102 101 100 100 100 99 98 98 98 97 96 96 95 93 92 90 89 88 88 87 87 87 87 86 86 85 85 84 83 82 81 80 80 80
112 112 113 113 114 114 115 115 116 116 117 117 118 119 119 120 121 122 124 125 124 122 121 121 119 117 115 114 114 115 116 116 112 109 108 107 107 107 107 106 105 104 103 103 103 102 101 101 100 100 99 99 98 97 95 93 92 90 90 89 89 89 88 88 88 88 88 87 86 85 84 83 82 82
108 109 109 108 109 109 110 110 110 111 112 112 113 113 114 115 117 117 119 122 122 122 122 122 121 120 118 117 117 117 118 119 116 112 111 110 110 110 110 109 108 106 106 105 105 105 104 104 103 102 102 102 101 100 99 97 95 93 92 92 91 91 91 90 90 90 90 89 89 88 87 86 85 85
109 110 110 109 109 110 111 111 110 111 111 112 112 112 113 113 114 115 116 118 119 118 118 118 118 118 118 117 116 117 118 119 120 118 115 113 113 112 112 112 111 109 108 108 107 107 107 106 106 105 105 104 104 103 102 100 99 97 95 94 93 93 93 92 92 92 92 92 91 91 90 89 88 88
113 114 114 114 114 114 115 115 115 115 115 116 116 116 116 116 116 116 117 118 118 117 115 115 114 114 114 114 112 112 113 115 118 119 118 116 115 115 114 115 114 112 110 110 110 109 109 109 109 108 107 107 106 105 105 104 102 101 99 97 96 95 95 94 94 94 94 94 94 93 93 92 92 91
116 116 117 117 117 118 118 118 119 119 119 120 120 120 120 120 120 119 119 120 121 120 118 115 114 112 112 112 109 107 106 107 110 113 114 114 114 115 115 116 117 116 114 113 112 111 111 111 111 111 110 109 108 107 107 106 105 104 103 101 99 98 97 96 96 96 96 96 95 95 95 95 94 94
114 115 115 115 116 117 117 118 118 118 119 120 121 121 121 122 122 122 121 121 122 122 121 118 115 113 112 112 109 105 103 103 103 106 107 106 106 108 111 113 116 117 117 116 115 114 113 113 113 113 112 112 111 110 109 108 108 107 106 104 102 101 100 99 99 99 99 99 98 98 97 97 97 96
105 105 106 106 107 107 108 109 110 111 112 114 115 116 117 118 118 119 119 119 119 120 120 118 116 114 112 112 110 106 103 101 100 101 101 99 98 98 102 105 108 112 116 116 116 116 116 116 115 115 114 114 113 112 111 110 109 108 108 107 106 104 103 102 101 101 101 101 101 100 100 99 99 98
94 95 95 95 96 96 97 98 99 100 102 104 105 106 107 109 110 111 112 113 114 114 114 114 113 111 110 109 107 104 102 100 98 97 97 96 92 90 92 95 97 102 107 110 112 114 114 115 116 116 116 115 114 113 112 111 110 109 109 109 108 108 106 105 104 104 104 104 103 103 102 102 101 101
83 83 83 83 83 84 86 87 88 90 91 94 95 96 98 100 101 103 104 105 107 107 107 107 107 106 105 103 103 101 99 98 96 93 92 92 89 85 85 87 87 90 96 99 101 105 108 109 111 113 115 115 115 114 113 112 111 110 109 109 109 109 109 108 107 106 106 106 105 105 104 104 103 103
68 67 67 67 68 70 72 73 75 77 79 82 85 86 89 91 93 95 97 98 100 101 102 102 101 101 99 98 98 97 95 93 91 89 89 88 85 82 81 81 80 80 85 89 90 93 97 99 102 105 107 110 111 111 111 111 110 110 109 109 110 110 110 110 109 109 108 108 108 107 107 106 105 105
54 54 54 55 56 58 59 60 62 64 67 70 73 75 78 82 85 88 90 92 93 95 97 97 97 97 95 94 94 93 91 89 86 86 86 84 82 81 79 78 75 73 77 81 82 84 85 88 92 96 98 101 103 105 106 106 106 106 107 108 109 109 110 111 111 110 110 110 109 109 109 108 107 107
47 49 50 51 52 52 53 54 55 56 58 60 62 65 69 73 77 81 83 85 87 90 92 93 94 95 94 92 91 90 88 86 85 84 84 82 80 79 77 74 70 69 72 75 76 77 77 79 83 86 89 91 93 95 96 97 99 100 102 104 106 107 108 109 110 111 111 111 111 111 110 110 109 109
46 48 49 50 51 51 52 54 54 55 56 57 58 60 62 65 69 73 76 79 81 84 86 88 90 91 91 89 89 88 87 85 85 84 83 81 79 78 75 70 67 68 70 72 72 72 73 74 76 78 80 82 83 85 86 88 90 93 95 98 100 102 104 106 108 109 111 111 111 111 111 111 111 110
46 47 48 49 50 52 53 55 56 57 57 57 58 58 59 60 60 63 66 71 74 77 81 83 85 85 87 86 86 86 86 86 86 85 83 81 78 76 73 68 66 68 69 69 69 68 68 71 72 72 73 74 75 76 78 79 81 84 87 90 93 96 98 101 104 106 108 110 111 111 111 111 111 111
46 48 50 51 52 53 55 57 58 59 59 59 59 59 59 58 57 57 58 62 66 70 74 77 78 79 81 82 82 84 85 86 85 84 83 81 78 75 71 68 68 68 68 67 67 65 65 67 68 67 67 68 69 70 70 72 73 75 78 81 84 87 90 94 97 100 103 106 108 109 110 110 110 111
48 50 52 53 53 54 55 56 57 58 59 60 60 60 60 59 58 56 55 56 58 61 65 68 70 73 75 76 77 80 84 85 84 83 83 82 78 74 72 70 68 67 66 65 64 63 63 64 63 63 65 66 65 65 65 65 66 68 71 73 76 79 83 86 90 93 97 100 102 104 106 107 109 109
50 52 53 52 52 52 51 51 52 53 55 56 56 56 57 59 59 58 56 56 57 56 57 59 61 64 68 70 72 76 80 82 82 82 82 81 79 75 73 71 68 65 64 63 62 61 60 59 59 61 63 63 62 61 61 61 62 64 66 68 70 73 76 79 83 86 89 92 95 98 100 103 104 106
50 50 49 49 49 49 48 48 48 49 51 51 50 49 50 52 55 56 56 58 58 56 55 54 55 57 61 64 67 71 76 78 79 79 79 79 78 76 74 71 66 63 62 60 61 61 58 56 57 59 60 60 59 58 59 59 60 62 63 64 66 68 70 73 75 78 81 84 87 90 93 96 98 100
46 45 44 45 46 46 45 46 47 47 48 47 46 46 45 46 48 50 53 55 56 56 56 55 54 54 55 58 62 67 71 73 75 76 75 75 76 76 73 69 65 62 60 59 60 59 56 55 56 58 58 57 56 56 57 58 58 59 59 59 61 62 64 66 69 71 74 77 80 82 85 87 90 92
40 40 41 42 43 44 44 45 46 46 46 46 45 43 42 41 41 44 48 49 50 53 55 56 55 54 53 53 55 60 64 67 70 72 71 71 74 74 72 68 64 62 60 58 58 58 55 54 55 56 55 54 54 55 56 55 54 54 54 54 54 56 58 60 62 65 67 69 71 74 76 78 81 83
37 37 38 38 39 40 41 42 44 44 43 44 45 42 40 38 37 40 43 44 45 48 51 53 55 54 52 51 52 54 58 62 66 68 67 68 70 71 70 67 64 61 59 58 58 57 54 53 53 53 53 52 53 53 52 50 49 49 49 50 50 52 53 55 56 58 60 62 64 65 67 69 72 74
35 34 34 34 35 36 36 37 40 41 39 40 42 40 36 35 36 38 40 41 42 43 45 49 52 53 53 52 52 53 54 57 61 63 63 64 66 67 68 66 63 60 59 58 57 56 53 52 52 52 51 51 50 49 48 47 46 46 47 47 48 48 49 50 52 54 55 57 58 59 61 62 64 66
32 31 31 31 32 32 32 31 33 34 33 34 36 34 31 31 34 36 36 38 39 39 41 44 48 51 52 52 52 51 51 53 56 58 58 61 63 65 66 65 62 60 59 57 55 54 52 50 50 50 49 48 47 46 45 45 45 45 45 46 46 47 47 49 50 51 52 53 54 55 57 57 59 60
30 29 29 29 28 28 27 25 26 28 29 29 30 29 28 29 32 33 34 35 36 36 38 41 44 47 50 50 50 49 48 49 52 53 55 59 62 63 65 64 62 60 58 55 53 52 50 49 48 48 47 46 45 44 44 44 44 44 44 45 45 46 46 47 47 48 48 49 50 51 52 53 55 56
29 29 29 28 27 25 22 21 22 23 24 24 25 25 25 27 29 30 31 32 33 34 36 38 40 43 45 47 47 46 44 46 48 50 54 59 61 62 63 62 59 57 54 52 51 50 49 47 46 46 44 43 43 43 43 43 43 43 43 43 43 44 44 44 44 44 45 45 46 47 48 50 51 53
30 29 29 28 26 23 20 20 20 19 18 19 20 21 21 23 25 26 26 28 29 31 33 36 38 40 42 43 42 41 40 42 46 49 53 57 58 59 59 58 56 54 52 50 50 48 47 46 45 44 43 42 42 42 42 41 41 42 41 41 41 41 41 41 41 41 41 42 43 45 46 48 49 50
32 30 29 27 23 21 19 19 18 15 15 16 16 16 17 18 19 19 20 22 24 27 30 33 35 36 37 38 37 37 39 42 45 48 51 53 55 56 56 55 53 52 50 49 48 47 45 44 43 42 41 41 41 40 40 40 40 40 39 39 39 39 39 39 40 40 40 41 43 44 46 47 48 49
31 29 26 23 21 19 19 18 15 12 12 12 12 11 12 13 14 15 16 18 21 24 27 29 30 31 33 34 35 37 39 42 45 47 49 51 53 54 54 53 52 50 49 48 47 46 44 43 42 41 41 40 39 39 39 39 39 38 38 37 37 38 38 39 39 40 41 42 43 43 44 45 46 46
25 24 22 20 17 17 17 16 13 10 9 9 8 9 10 11 12 14 16 18 20 22 24 26 28 30 32 33 35 37 40 42 43 45 48 50 53 54 53 52 50 49 47 46 45 44 43 42 41 40 39 38 38 38 38 38 37 37 37 37 37 38 38 39 39 40 40 40 40 41 41 42 43 44
21 20 18 16 14 14 13 12 11 9 9 9 9 9 9 11 12 14 16 18 20 22 24 26 28 30 32 34 36 38 40 41 43 46 49 51 53 52 51 49 48 46 45 44 43 42 41 40 39 38 37 37 37 38 38 37 37 36 36 36 37 37 37 38 38 38 38 38 38 38 39 39 40 41
19 18 16 13 12 11 11 10 10 9 9 10 10 10 10 11 14 16 18 20 22 23 25 27 29 31 33 35 37 38 40 42 45 48 50 52 52 50 48 47 46 44 43 42 42 41 40 38 38 36 36 37 37 38 38 37 36 36 36 36 36 36 36 36 36 36 36 35 36 36 37 37 38 39
19 17 14 11 10 9 10 10 10 10 11 12 13 13 13 14 15 17 19 21 23 24 26 28 30 32 33 35 37 39 41 44 47 49 50 51 50 48 46 45 44 43 42 42 41 39 39 38 36 36 36 37 38 38 37 36 36 35 35 35 35 36 35 35 35 34 34 34 34 35 35 36 37 38
17 15 13 11 10 9 9 11 11 11 11 13 14 16 17 17 18 20 22 23 23 24 25 27 28 30 33 35 38 40 43 46 48 49 49 48 47 46 45 44 42 42 42 41 39 38 38 36 35 36 37 38 38 38 37 36 35 35 35 35 35 35 34 34 34 33 33 33 33 33 33 34 35 36
15 14 11 9 9 8 9 11 12 12 12 14 15 17 18 18 19 21 22 22 23 23 25 26 28 31 34 37 40 42 45 47 48 48 47 46 45 44 44 42 42 41 41 40 38 37 36 35 35 36 38 38 38 37 36 35 34 34 34 34 34 34 34 33 32 32 32 31 31 32 32 32 33 34
13 13 10 8 7 6 7 9 10 10 11 12 14 16 17 17 17 19 20 22 23 24 25 28 30 33 36 38 41 42 44 46 46 46 45 45 44 44 43 42 41 41 40 38 37 36 35 34 35 37 38 38 37 36 35 34 33 33 33 33 33 33 33 32 31 30 30 30 30 30 30 31 31 32
11 11 10 8 6 4 3 4 5 6 7 8 11 14 16 16 17 19 20 22 23 25 27 29 31 34 36 38 40 42 43 44 45 44 44 44 44 42 41 40 40 39 38 36 35 34 34 34 36 37 38 38 37 35 34 33 33 33 33 33 33 32 31 30 29 29 28 28 28 29 29 29 30 30
9 9 9 7 5 3 2 1 2 4 5 8 12 14 16 16 17 19 20 22 24 26 28 30 32 34 36 38 41 42 44 44 44 43 43 43 42 41 40 39 39 38 36 34 34 33 34 35 36 37 37 37 36 35 34 34 34 34 34 33 32 31 30 28 28 27 27 27 27 28 28 27 27 27
7 6 6 6 5 3 1 1 3 5 7 10 13 14 15 16 18 20 22 24 26 28 30 32 34 36 38 40 41 42 42 42 42 42 42 41 40 39 39 38 37 35 34 33 33 34 34 35 36 36 36 36 35 34 34 34 33 33 32 31 30 29 28 27 27 26 26 26 26 26 26 25 25 25
6 5 4 4 3 2 1 2 4 6 9 11 13 14 16 17 20 22 24 26 28 30 32 34 35 37 39 39 39 39 40 40 40 41 40 39 39 38 38 37 35 34 34 34 34 35 35 36 36 36 35 35 35 34 34 33 32 32 31 30 29 28 27 26 25 25 25 25 25 24 24 24 24 24
6 4 4 3 3 3 3 5 6 8 10 11 13 15 17 19 22 24 25 27 29 32 34 35 36 36 37 37 37 38 39 40 40 40 39 38 37 37 36 35 35 34 35 35 35 36 36 37 36 35 35 35 34 33 32 32 32 31 30 29 28 27 26 25 24 24 24 23 23 24 24 24 23 22
6 4 4 4 4 4 5 6 8 10 11 13 15 17 19 21 23 25 26 28 30 32 34 36 36 36 36 37 38 39 39 40 39 38 38 37 37 36 36 35 35 35 35 35 36 36 36 36 35 34 34 34 33 32 32 32 31 30 29 28 27 26 25 24 24 24 23 22 22 23 23 23 22 21
5 4 4 5 5 6 7 8 9 11 13 15 17 19 21 23 25 26 27 29 31 32 34 35 36 37 37 37 38 39 39 39 38 38 37 37 36 35 35 35 34 35 35 35 36 36 35 34 33 34 34 33 32 31 32 31 30 28 27 26 25 24 24 24 23 23 23 22 22 22 22 22 21 20
Wind_Direction
269 269 269 269 269 268 268 268 268 268 268 268 268 267 267 267 267 266 265 264 264 263 262 262 262 261 261 261 260 259 258 257 256 256 256 255 255 254 253 253 252 252 251 250 249 248 247 247 246 246 246 245 245 244 242 241 241 241 240 240 240 241 242 242 242 242 241 241 241 241 240 240 240 240
269 269 269 268 268 268 268 268 267 267 267 267 267 267 267 267 267 266 266 265 264 263 263 262 262 261 261 261 261 260 259 258 256 256 255 255 255 254 253 253 252 252 252 251 250 249 248 247 246 246 246 246 245 245 244 242 242 241 241 240 240 240 241 241 241 242 242 241 241 241 241 241 241 241
269 269 268 268 268 268 267 267 267 267 267 267 267 266 266 266 266 266 266 265 264 263 263 262 261 260 260 260 260 260 259 258 257 256 256 255 255 255 254 253 253 252 252 252 251 250 249 248 247 246 246 246 245 245 245 244 243 242 241 241 240 240 240 241 241 241 242 241 241 241 241 241 241 241
269 269 268 268 267 267 267 266 266 266 266 266 266 266 265 265 265 265 265 265 264 263 262 262 261 260 260 259 259 259 259 258 257 256 256 255 255 254 254 253 253 252 252 252 251 251 250 250 249 247 246 246 245 245 245 244 244 243 242 241 241 240 240 240 241 241 241 241 241 242 241 241 241 242
270 269 268 268 267 267 266 266 265 265 265 265 265 265 265 265 264 264 264 264 264 263 262 262 261 260 260 259 259 259 259 258 257 256 255 255 255 254 254 253 252 252 252 252 251 251 251 250 250 248 247 246 246 245 245 245 244 244 243 242 241 241 240 240 241 241 241 241 241 242 242 242 242 242
270 269 269 268 268 267 267 266 265 265 265 264 264 264 264 264 264 264 264 264 264 263 262 262 261 260 260 259 258 258 258 258 257 256 255 254 254 254 254 254 253 252 251 252 251 251 251 250 250 249 248 247 246 246 245 245 244 244 244 243 242 242 241 241 241 241 241 241 241 241 241 242 242 242
270 270 269 269 268 268 267 266 266 266 265 265 264 264 264 264 263 263 263 263 263 263 262 261 261 260 260 259 258 258 258 258 258 257 255 254 253 253 253 253 253 252 251 251 251 251 251 251 250 250 249 248 247 247 246 245 245 244 244 243 243 242 242 241 241 241 241 241 241 241 241 241 242 242
271 271 270 269 269 268 267 267 266 266 265 265 264 264 263 263 263 263 263 263 263 262 261 261 260 260 259 259 258 257 257 258 258 257 256 255 253 253 252 252 253 252 251 251 251 251 251 251 250 250 249 249 248 247 247 246 246 245 245 244 244 243 243 242 242 242 241 241 241 241 241 241 241 242
272 271 271 270 269 268 268 267 266 265 264 264 263 263 262 262 261 261 261 261 261 261 261 260 259 259 258 258 258 256 256 256 256 256 256 255 254 253 252 251 252 252 251 251 251 251 251 251 250 250 249 249 248 248 247 247 246 246 245 245 244 244 243 243 242 242 242 242 241 241 241 241 241 242
273 272 271 270 269 269 268 267 265 264 263 262 262 261 261 260 260 259 259 258 258 259 259 259 258 257 257 257 256 255 254 254 254 255 255 255 254 253 252 250 250 251 251 250 250 250 250 250 250 250 249 249 249 248 247 247 246 246 246 246 245 245 244 243 243 242 242 242 242 241 241 241 242 242
274 273 272 271 270 269 268 267 265 264 263 262 261 260 260 259 258 258 257 257 257 257 257 257 256 256 255 255 254 253 252 251 251 252 253 254 253 252 252 250 249 249 249 249 249 249 249 249 250 250 249 249 249 249 248 248 247 246 246 246 246 245 245 244 243 243 243 242 242 242 242 242 242 242
276 275 274 273 271 270 268 267 265 264 263 262 261 260 259 258 257 257 256 255 255 255 255 255 255 254 253 253 252 252 250 250 249 250 251 252 251 250 250 250 248 247 247 248 248 248 248 248 248 249 249 249 249 249 249 248 248 247 246 246 246 245 245 245 244 244 243 243 243 242 242 242 242 242
276 275 274 273 271 270 269 268 267 265 264 262 261 259 258 257 257 256 255 254 254 253 253 252 252 252 252 251 251 250 249 249 249 248 248 249 249 249 248 248 247 245 246 246 245 246 246 247 247 247 248 248 248 248 248 248 248 247 247 246 246 245 245 245 244 244 244 243 243 243 242 242 242 242
278 277 276 274 273 273 272 271 269 267 266 264 262 260 258 257 256 255 254 253 253 252 252 251 250 250 250 249 249 248 248 247 246 246 245 246 246 246 246 246 245 244 244 244 243 243 244 245 246 245 245 246 247 247 247 247 247 247 246 246 245 245 244 244 244 244 244 244 243 243 243 243 242 242
279 278 277 277 276 275 274 273 271 269 268 266 264 261 259 257 255 254 253 252 252 251 251 250 249 248 248 247 248 247 246 245 244 243 243 243 243 244 244 245 244 242 241 241 241 241 241 242 243 244 244 244 245 246 246 246 246 245 245 245 244 243 243 243 243 243 243 243 243 243 243 243 243 243
280 279 279 278 278 277 276 274 272 270 268 267 265 263 261 259 257 255 254 252 251 250 250 249 248 247 246 245 246 246 245 244 242 242 241 241 241 242 242 242 241 240 238 238 239 239 239 240 241 243 244 243 243 243 244 244 244 244 244 243 243 242 242 241 241 242 242 242 243 243 243 243 243 243
283 281 280 279 279 278 276 275 273 271 269 267 265 264 263 261 260 258 256 254 251 250 249 249 247 246 246 244 244 244 244 243 241 240 240 240 239 239 240 239 238 238 237 236 235 236 238 240 240 240 242 243 243 242 242 242 243 243 243 242 242 241 241 240 240 240 241 241 241 242 242 242 242 242
284 283 282 281 280 278 275 273 271 270 268 266 265 264 263 262 261 259 257 256 254 251 249 248 247 246 245 244 242 242 242 242 240 239 238 238 238 237 237 236 235 236 236 234 233 234 237 240 241 240 240 241 242 242 241 241 242 243 243 243 242 242 241 240 240 240 240 240 240 241 241 241 241 242
285 285 284 283 281 278 275 273 272 270 268 266 264 263 263 262 260 258 257 256 255 253 250 248 247 246 245 243 241 241 241 241 240 238 237 237 236 235 235 234 234 234 234 234 232 232 236 239 240 240 239 239 239 240 241 241 242 243 244 243 242 241 241 240 240 239 239 239 240 240 240 241 241 241
289 288 287 286 283 280 278 276 274 272 270 268 266 264 263 262 260 258 255 254 253 252 251 249 247 245 244 242 240 239 240 239 239 237 236 235 234 233 233 233 232 232 233 232 230 232 236 239 240 239 239 238 237 238 240 242 243 243 244 243 243 241 240 240 240 239 239 239 239 240 240 240 240 240
292 291 289 287 284 283 281 279 276 274 272 272 270 266 263 261 260 258 255 252 250 249 248 248 246 243 242 240 238 237 237 237 237 236 235 233 232 232 231 231 230 230 230 230 231 232 235 237 239 238 238 237 236 237 240 242 243 244 244 243 243 242 241 240 239 239 239 239 239 239 240 240 240 241
294 292 289 287 286 285 283 281 279 277 276 275 272 268 263 259 258 258 255 252 249 246 244 244 243 241 240 239 237 236 236 235 235 234 233 231 230 230 229 229 228 228 228 229 230 232 233 236 238 237 236 236 235 237 240 242 244 245 244 243 242 241 240 239 239 238 238 239 239 239 240 240 241 241
295 292 289 288 287 286 284 283 281 279 277 275 273 270 265 260 257 255 254 252 248 245 242 240 240 239 238 238 237 236 235 234 233 232 230 228 228 227 226 227 226 226 226 227 229 231 232 234 236 236 235 234 235 237 240 243 244 244 243 242 241 239 238 238 237 237 238 238 238 239 239 240 241 241
296 293 291 289 286 283 281 280 279 277 275 273 272 270 267 263 258 253 251 250 247 244 240 237 236 235 235 234 234 234 233 232 231 230 227 226 225 224 223 224 224 223 224 225 227 229 231 233 234 233 233 233 235 238 241 243 242 242 241 240 239 237 236 236 236 236 236 237 238 238 239 239 240 240
298 295 292 288 284 280 277 274 273 274 273 272 271 270 267 262 256 251 248 246 244 242 238 235 232 231 231 230 230 231 231 230 229 227 224 223 222 220 220 220 220 221 221 222 224 227 230 231 231 231 231 233 236 238 240 240 239 239 238 237 236 236 235 235 234 234 234 235 236 236 237 237 238 239
299 296 292 288 285 282 278 273 273 274 274 273 272 270 264 257 252 248 245 243 241 238 235 232 229 228 227 227 227 228 228 227 226 223 220 219 218 216 216 217 217 218 219 220 222 226 228 229 228 229 230 232 235 237 237 237 237 236 235 235 234 234 234 233 233 233 233 233 233 234 234 235 236 237
301 299 297 294 290 285 281 280 281 280 279 276 273 269 261 254 250 246 242 239 237 234 231 228 226 225 224 225 225 226 225 224 222 218 215 215 214 213 213 213 214 215 216 217 220 224 226 226 225 227 229 231 233 234 234 235 235 234 233 232 232 232 232 232 232 232 231 231 231 231 232 233 234 235
308 307 305 302 297 291 289 289 287 283 281 277 271 266 259 253 249 244 240 236 232 229 226 224 222 221 222 222 223 224 222 220 217 213 211 211 210 209 209 210 211 212 213 215 219 222 223 222 223 225 227 229 231 231 232 232 232 231 230 229 229 229 229 229 229 229 228 228 228 229 230 232 233 235
316 314 311 308 303 299 296 289 281 277 276 272 266 260 255 250 246 242 238 233 229 225 222 219 217 217 218 219 221 221 219 216 213 210 208 208 207 206 206 207 208 209 210 214 218 220 220 220 221 223 225 227 229 229 229 229 228 227 226 225 224 225 225 224 224 224 224 225 226 228 230 232 234 235
320 318 315 312 306 300 292 283 274 270 270 264 258 254 251 248 245 241 236 232 228 224 220 217 215 213 214 216 217 217 214 211 208 206 205 204 203 202 203 203 204 206 209 213 215 216 216 217 219 221 223 226 227 227 226 224 223 222 221 219 219 219 219 219 219 221 222 224 227 229 231 233 234 235
320 320 317 312 305 297 288 279 270 264 261 256 250 247 244 239 235 230 225 222 220 218 217 215 213 210 210 211 211 210 208 204 202 200 199 199 198 198 199 200 201 204 207 210 211 213 214 215 217 219 222 224 224 223 221 219 217 216 214 214 214 215 216 218 219 221 223 225 228 230 232 233 234 235
320 320 316 309 301 295 288 280 270 258 246 236 230 229 227 220 216 215 212 209 209 209 209 208 207 206 205 206 205 204 201 198 196 194 194 194 195 195 195 197 200 203 205 206 208 210 212 213 216 219 221 222 220 218 215 213 211 210 210 211 213 215 217 218 220 222 224 226 228 231 233 234 236 237
325 324 317 308 301 295 289 281 269 253 235 218 206 202 204 202 198 198 199 199 200 201 201 201 201 201 200 199 199 197 194 191 189 189 189 191 192 192 192 195 198 200 202 203 206 208 210 212 215 218 219 218 215 212 209 207 207 208 210 212 214 216 218 219 220 222 224 227 230 233 234 236 237 238
334 331 323 313 305 296 284 271 256 238 224 211 197 187 185 189 189 189 191 194 195 196 197 197 196 196 195 193 191 190 187 184 184 185 186 188 189 189 190 194 196 197 199 201 204 206 208 211 214 216 215 213 210 207 204 204 206 209 211 213 215 216 218 220 221 224 226 229 232 234 235 237 238 240
342 338 330 322 311 293 274 260 246 230 217 206 195 186 182 185 188 189 190 193 194 194 194 194 192 191 189 186 184 183 181 180 181 182 183 185 186 187 189 191 193 194 197 200 202 204 207 211 212 212 211 209 206 203 203 204 206 209 211 213 215 217 219 220 222 225 228 231 233 235 236 238 239 240
347 342 339 332 314 290 265 249 238 225 215 207 197 192 189 188 188 190 192 192 192 191 191 189 185 183 181 179 179 179 178 178 179 180 181 182 184 185 187 189 190 193 197 199 201 203 207 209 209 208 207 205 203 202 203 204 206 209 211 214 216 218 219 221 223 226 229 232 234 236 237 238 239 239
351 347 348 343 321 295 266 249 238 225 215 207 199 196 196 193 189 189 189 189 187 184 183 181 178 176 176 176 176 176 175 176 177 177 178 180 181 183 185 187 190 193 196 198 200 204 206 207 206 205 204 202 202 203 204 205 207 210 213 215 216 218 219 222 225 228 230 232 234 236 237 238 239 239
354 352 356 359 342 312 280 259 248 234 221 210 201 197 196 192 188 186 183 181 179 177 176 175 174 173 174 174 174 173 173 174 174 175 176 178 179 181 184 187 190 194 196 198 200 203 204 204 203 202 202 202 202 203 204 206 209 211 214 215 217 218 220 223 226 228 231 232 234 235 236 237 238 239
357 357 359 6 6 343 306 273 254 240 223 206 197 195 192 185 181 179 176 174 172 172 171 170 170 170 170 170 170 170 170 171 172 173 175 177 178 181 184 187 191 194 196 198 200 202 202 201 200 200 200 201 202 204 205 207 210 212 214 215 216 218 220 224 226 229 231 232 233 235 236 237 238 239
359 4 1 3 11 10 348 270 223 215 202 191 188 188 185 178 172 169 168 168 167 166 165 165 165 165 165 166 167 168 169 169 171 172 174 176 179 182 185 188 191 194 196 197 199 199 199 198 199 199 200 201 202 205 207 209 211 213 213 214 216 218 220 223 226 228 230 232 233 235 236 237 238 240
357 11 12 7 11 19 27 167 180 186 186 185 184 181 175 168 164 163 163 164 163 161 160 160 160 161 162 164 166 167 168 168 170 171 174 176 180 183 186 189 192 194 194 196 197 197 196 196 197 198 200 201 203 206 209 211 212 212 212 213 216 219 221 222 225 227 229 232 234 235 236 237 238 241
354 15 31 32 32 43 90 146 163 172 175 177 175 171 165 161 159 159 160 160 160 159 157 157 159 161 162 164 165 166 166 167 169 172 175 178 181 184 187 189 191 192 193 194 194 194 195 196 197 198 199 202 204 207 210 211 210 210 211 213 216 219 220 222 224 227 229 232 234 235 236 237 240 241
355 17 45 63 80 100 124 144 156 162 165 167 165 161 158 157 156 156 157 158 158 158 157 157 158 160 162 163 164 165 166 168 171 174 177 180 183 185 187 189 190 191 192 193 193 194 195 196 196 197 199 202 205 207 209 210 209 209 211 213 215 218 221 223 225 228 230 232 233 234 236 238 240 238
360 24 51 72 95 115 129 141 150 155 157 158 157 154 153 153 153 154 155 157 157 157 157 157 157 159 160 162 163 165 168 170 173 176 178 181 184 186 188 189 190 191 192 193 193 194 195 195 196 197 200 203 204 205 206 208 209 209 211 213 216 218 221 224 226 229 231 232 232 234 236 238 237 234
8 34 61 79 95 111 127 137 145 149 150 150 150 150 150 151 152 153 154 156 157 157 157 157 157 158 160 163 165 167 170 172 175 177 180 183 185 187 188 189 190 191 191 192 192 194 194 195 196 199 201 202 203 204 205 206 207 209 211 213 215 218 222 224 227 230 232 232 232 234 237 237 234 234
Height
5365 5363 5364 5363 5363 5366 5365 5363 5364 5364 5363 5363 5364 5365 5366 5365 5367 5371 5375 5379 5388 5397 5399 5401 5407 5411 5412 5413 5417 5421 5427 5436 5440 5441 5444 5448 5451 5456 5459 5462 5467 5470 5474 5478 5481 5485 5489 5493 5497 5501 5505 5509 5513 5517 5522 5526 5530 5534 5537 5542 5546 5548 5552 5556 5559 5563 5567 5571 5575 5579 5583 5587 5591 5594
5346 5345 5346 5346 5345 5347 5348 5346 5347 5347 5346 5346 5347 5347 5349 5349 5348 5350 5354 5358 5369 5379 5381 5384 5389 5393 5396 5397 5399 5403 5407 5416 5423 5425 5430 5434 5435 5440 5443 5447 5453 5457 5460 5464 5468 5472 5476 5480 5484 5489 5492 5496 5500 5505 5510 5514 5518 5522 5526 5531 5535 5538 5540 5545 5548 5552 5556 5561 5565 5569 5573 5577 5581 5585
5326 5326 5327 5328 5328 5328 5328 5328 5328 5329 5328 5328 5329 5329 5330 5331 5330 5332 5332 5333 5348 5361 5361 5363 5370 5375 5380 5383 5383 5384 5388 5395 5404 5409 5413 5418 5420 5423 5426 5432 5439 5443 5446 5450 5453 5457 5462 5466 5471 5475 5479 5483 5488 5492 5497 5501 5506 5510 5515 5519 5523 5526 5530 5534 5538 5541 5545 5550 5555 5559 5563 5567 5571 5574
5306 5307 5308 5309 5309 5309 5309 5309 5310 5310 5310 5310 5311 5310 5311 5312 5313 5314 5312 5310 5325 5342 5340 5340 5349 5356 5363 5367 5367 5367 5369 5374 5384 5392 5396 5399 5404 5406 5410 5417 5423 5427 5431 5435 5438 5442 5447 5452 5456 5461 5465 5469 5474 5479 5484 5488 5493 5499 5503 5506 5510 5515 5519 5522 5526 5530 5535 5539 5543 5548 5552 5557 5561 5564
5288 5287 5289 5291 5292 5291 5289 5290 5292 5292 5292 5292 5293 5293 5292 5293 5295 5296 5295 5292 5301 5317 5321 5319 5327 5337 5343 5347 5350 5351 5351 5354 5364 5373 5379 5382 5386 5390 5393 5399 5406 5412 5416 5420 5423 5428 5432 5437 5441 5446 5451 5455 5460 5465 5470 5475 5481 5486 5490 5494 5499 5504 5508 5511 5515 5519 5524 5528 5532 5537 5541 5545 5550 5553
5271 5269 5271 5273 5274 5272 5270 5272 5274 5274 5274 5274 5274 5276 5275 5275 5277 5278 5277 5276 5279 5291 5301 5302 5307 5317 5322 5325 5331 5334 5333 5337 5344 5350 5359 5365 5368 5374 5377 5380 5388 5396 5401 5404 5408 5413 5417 5421 5426 5431 5436 5441 5446 5451 5456 5461 5467 5472 5476 5481 5487 5491 5496 5500 5504 5508 5512 5517 5521 5525 5529 5534 5538 5542
5253 5250 5251 5253 5254 5252 5250 5252 5255 5255 5255 5255 5254 5257 5257 5256 5259 5262 5260 5258 5260 5268 5279 5285 5288 5298 5303 5303 5311 5318 5317 5320 5324 5327 5336 5346 5351 5357 5361 5364 5369 5378 5384 5388 5392 5396 5401 5405 5410 5415 5420 5426 5431 5437 5441 5447 5452 5458 5463 5468 5474 5479 5483 5488 5492 5495 5500 5504 5509 5513 5517 5522 5526 5530
5232 5230 5230 5232 5232 5230 5230 5232 5234 5234 5234 5234 5233 5235 5237 5236 5238 5243 5243 5240 5241 5246 5256 5265 5272 5279 5283 5283 5291 5302 5303 5303 5306 5307 5314 5325 5333 5339 5345 5348 5352 5359 5366 5371 5375 5380 5385 5389 5394 5399 5404 5410 5416 5422 5427 5432 5437 5443 5448 5454 5460 5465 5470 5475 5479 5483 5487 5492 5496 5501 5505 5510 5514 5518
5210 5208 5208 5210 5209 5208 5208 5210 5211 5212 5211 5211 5210 5211 5215 5216 5217 5221 5223 5222 5223 5225 5232 5245 5254 5259 5264 5265 5272 5285 5289 5289 5289 5289 5295 5306 5314 5320 5326 5330 5335 5341 5346 5353 5359 5364 5368 5372 5377 5382 5387 5393 5399 5406 5412 5417 5422 5428 5434 5440 5446 5451 5457 5461 5466 5470 5474 5479 5484 5488 5493 5497 5502 5507
5189 5188 5187 5188 5188 5186 5186 5187 5188 5188 5188 5187 5188 5189 5192 5194 5196 5198 5202 5204 5204 5206 5212 5222 5232 5239 5245 5248 5253 5265 5273 5274 5274 5275 5280 5289 5296 5302 5307 5313 5320 5323 5327 5335 5342 5346 5350 5354 5359 5365 5370 5376 5383 5389 5396 5402 5408 5415 5421 5426 5431 5436 5442 5447 5452 5456 5461 5465 5470 5475 5480 5485 5490 5494
5170 5169 5168 5168 5168 5166 5165 5165 5165 5166 5166 5166 5167 5170 5171 5174 5175 5178 5183 5185 5186 5190 5195 5202 5210 5219 5227 5230 5235 5247 5255 5256 5259 5263 5267 5274 5282 5286 5289 5296 5304 5308 5310 5317 5323 5327 5333 5337 5341 5347 5353 5360 5367 5374 5380 5387 5393 5400 5406 5411 5416 5421 5426 5432 5437 5442 5446 5451 5456 5462 5467 5472 5477 5482
5153 5152 5151 5150 5149 5148 5146 5146 5147 5147 5148 5147 5149 5152 5153 5154 5157 5159 5164 5167 5169 5173 5179 5184 5191 5199 5208 5214 5219 5228 5236 5239 5247 5255 5256 5259 5266 5272 5274 5280 5289 5293 5296 5301 5306 5309 5315 5320 5325 5331 5337 5344 5352 5358 5364 5371 5378 5385 5391 5395 5400 5405 5410 5416 5422 5427 5432 5437 5442 5448 5453 5459 5464 5469
5140 5138 5137 5136 5134 5133 5131 5131 5131 5132 5132 5130 5132 5136 5137 5137 5140 5142 5146 5149 5153 5157 5162 5169 5176 5181 5189 5198 5203 5210 5219 5227 5236 5243 5242 5244 5252 5259 5261 5265 5273 5280 5283 5287 5291 5295 5300 5305 5310 5315 5321 5328 5335 5341 5348 5356 5363 5369 5374 5379 5384 5389 5395 5400 5406 5412 5417 5423 5428 5434 5439 5445 5450 5455
5130 5127 5125 5124 5123 5122 5121 5120 5119 5119 5118 5117 5118 5120 5121 5122 5123 5126 5129 5134 5138 5142 5146 5153 5161 5165 5173 5182 5187 5195 5206 5215 5223 5227 5227 5233 5240 5244 5247 5253 5262 5268 5271 5274 5278 5283 5288 5292 5295 5300 5308 5315 5320 5326 5335 5342 5348 5353 5357 5362 5368 5374 5380 5385 5391 5397 5403 5408 5414 5419 5425 5430 5436 5442
5122 5119 5116 5115 5114 5113 5111 5110 5109 5108 5107 5106 5105 5106 5107 5107 5108 5111 5115 5120 5124 5127 5131 5138 5145 5149 5158 5168 5174 5182 5193 5201 5207 5211 5215 5221 5227 5230 5235 5244 5252 5257 5260 5262 5266 5272 5277 5280 5282 5287 5296 5303 5309 5315 5322 5327 5332 5336 5340 5346 5352 5358 5364 5370 5376 5382 5388 5393 5399 5404 5410 5416 5422 5428
5113 5111 5109 5107 5105 5104 5102 5100 5099 5098 5097 5096 5095 5095 5095 5095 5097 5099 5102 5107 5111 5114 5117 5123 5129 5135 5144 5155 5162 5169 5178 5186 5192 5197 5202 5209 5215 5219 5226 5235 5242 5245 5248 5252 5257 5262 5267 5270 5274 5278 5285 5292 5299 5304 5309 5312 5316 5321 5326 5331 5337 5343 5349 5355 5361 5367 5373 5378 5384 5390 5396 5401 5407 5413
5104 5102 5101 5099 5097 5096 5094 5091 5089 5087 5087 5087 5086 5085 5085 5086 5088 5090 5092 5095 5098 5102 5104 5108 5116 5124 5132 5141 5150 5157 5164 5170 5177 5184 5190 5197 5203 5209 5217 5226 5231 5232 5237 5243 5248 5253 5258 5261 5266 5273 5278 5282 5287 5293 5297 5300 5303 5308 5312 5317 5323 5329 5335 5341 5346 5352 5358 5364 5369 5375 5381 5387 5393 5399
5096 5093 5091 5090 5089 5087 5084 5082 5079 5077 5077 5077 5076 5076 5077 5078 5080 5082 5084 5085 5087 5090 5093 5097 5105 5114 5119 5128 5139 5145 5149 5155 5163 5172 5179 5185 5193 5201 5208 5214 5218 5221 5227 5235 5240 5247 5251 5254 5259 5266 5271 5273 5276 5281 5286 5289 5293 5297 5301 5306 5311 5316 5321 5327 5332 5338 5344 5349 5355 5361 5367 5373 5379 5384
5087 5085 5082 5080 5079 5077 5074 5072 5070 5068 5067 5066 5067 5068 5069 5070 5071 5074 5076 5077 5078 5080 5083 5088 5096 5103 5108 5116 5126 5132 5135 5141 5150 5159 5167 5174 5182 5191 5197 5202 5208 5215 5220 5227 5234 5240 5244 5246 5251 5257 5260 5263 5267 5272 5276 5281 5285 5288 5291 5295 5300 5305 5309 5314 5320 5325 5331 5337 5342 5348 5353 5359 5365 5370
5078 5075 5072 5070 5068 5066 5064 5063 5061 5059 5056 5056 5059 5060 5061 5061 5062 5065 5068 5069 5069 5072 5075 5080 5087 5093 5098 5104 5112 5118 5122 5128 5138 5146 5154 5162 5171 5180 5187 5193 5201 5208 5214 5220 5227 5233 5236 5239 5244 5247 5250 5255 5261 5265 5269 5273 5277 5279 5282 5286 5290 5294 5298 5303 5309 5314 5320 5325 5330 5335 5340 5346 5352 5358
5069 5067 5063 5060 5058 5056 5056 5054 5053 5050 5048 5048 5050 5051 5052 5052 5052 5055 5058 5058 5060 5064 5068 5073 5077 5083 5087 5092 5099 5105 5109 5116 5125 5133 5142 5153 5162 5170 5178 5186 5194 5202 5208 5214 5220 5225 5229 5233 5235 5239 5243 5248 5254 5259 5262 5265 5267 5270 5274 5277 5280 5285 5289 5294 5299 5304 5309 5314 5319 5324 5329 5334 5340 5345
5062 5059 5055 5052 5049 5048 5047 5046 5044 5042 5040 5040 5041 5041 5043 5044 5045 5046 5047 5048 5052 5056 5060 5064 5069 5073 5078 5082 5088 5093 5098 5106 5114 5121 5133 5144 5151 5159 5169 5179 5187 5194 5201 5207 5212 5217 5223 5225 5227 5232 5237 5242 5248 5252 5254 5257 5259 5263 5266 5269 5273 5277 5281 5285 5290 5294 5299 5304 5309 5314 5319 5324 5329 5334
5055 5052 5048 5045 5043 5041 5039 5037 5036 5034 5033 5032 5032 5032 5033 5036 5038 5038 5037 5040 5044 5047 5051 5056 5060 5066 5071 5075 5080 5085 5091 5098 5104 5113 5125 5134 5141 5151 5163 5172 5180 5187 5194 5201 5206 5210 5214 5218 5221 5226 5231 5237 5242 5244 5246 5250 5253 5256 5259 5262 5266 5269 5273 5277 5282 5286 5291 5296 5300 5305 5310 5315 5319 5324
5048 5045 5042 5040 5037 5035 5033 5030 5028 5027 5026 5024 5024 5025 5026 5028 5030 5029 5029 5032 5035 5038 5042 5047 5053 5058 5064 5069 5073 5078 5083 5089 5096 5105 5117 5125 5133 5145 5156 5164 5172 5181 5188 5194 5199 5202 5207 5212 5216 5221 5226 5231 5235 5237 5240 5244 5247 5250 5253 5255 5259 5262 5266 5271 5275 5279 5284 5288 5293 5297 5302 5306 5311 5316
5042 5039 5037 5034 5031 5029 5027 5024 5021 5020 5019 5017 5016 5018 5020 5021 5021 5021 5023 5025 5028 5031 5035 5040 5045 5050 5056 5061 5066 5071 5076 5083 5090 5099 5110 5119 5127 5138 5148 5156 5166 5174 5180 5187 5191 5196 5201 5207 5211 5216 5221 5225 5228 5231 5235 5238 5241 5244 5246 5249 5252 5256 5261 5265 5269 5273 5277 5282 5286 5290 5295 5299 5303 5308
5036 5034 5031 5028 5025 5022 5020 5018 5016 5014 5013 5012 5011 5013 5014 5014 5014 5014 5017 5019 5022 5026 5029 5033 5038 5043 5049 5054 5060 5065 5072 5078 5084 5094 5104 5113 5121 5131 5140 5149 5158 5166 5173 5180 5186 5191 5196 5201 5206 5211 5215 5219 5222 5226 5230 5232 5235 5238 5241 5244 5248 5251 5255 5259 5263 5267 5272 5276 5280 5284 5288 5292 5297 5301
5031 5028 5025 5022 5019 5016 5013 5011 5010 5009 5008 5008 5008 5008 5009 5009 5009 5010 5012 5015 5018 5021 5024 5028 5033 5038 5044 5050 5055 5061 5068 5073 5080 5090 5099 5107 5115 5124 5133 5142 5152 5160 5167 5175 5181 5186 5191 5197 5202 5206 5210 5214 5217 5221 5224 5227 5230 5233 5236 5239 5243 5246 5249 5253 5258 5262 5266 5270 5275 5279 5283 5287 5291 5295
5025 5022 5019 5016 5013 5010 5007 5006 5006 5005 5005 5005 5004 5004 5005 5005 5006 5007 5009 5011 5014 5017 5020 5024 5029 5035 5041 5046 5052 5058 5065 5071 5077 5085 5093 5099 5108 5118 5127 5138 5147 5155 5164 5171 5177 5181 5186 5193 5198 5201 5205 5209 5212 5216 5219 5222 5225 5228 5231 5235 5238 5242 5245 5250 5253 5257 5261 5265 5270 5274 5278 5282 5285 5289
5019 5016 5013 5010 5008 5005 5003 5003 5003 5002 5002 5002 5001 5002 5002 5003 5003 5005 5007 5010 5012 5015 5018 5022 5026 5032 5038 5044 5050 5057 5063 5068 5074 5081 5088 5096 5105 5115 5125 5135 5144 5153 5160 5167 5171 5177 5183 5188 5193 5197 5201 5204 5207 5211 5214 5217 5220 5223 5227 5231 5234 5238 5242 5246 5249 5253 5257 5262 5266 5269 5273 5276 5280 5284
5014 5011 5008 5006 5004 5002 5002 5001 5001 5000 5000 5000 5000 5000 5001 5002 5003 5005 5007 5009 5012 5015 5018 5021 5026 5032 5037 5043 5049 5054 5060 5065 5071 5079 5087 5095 5105 5115 5124 5133 5142 5149 5156 5162 5167 5173 5179 5184 5188 5192 5196 5199 5203 5206 5210 5213 5216 5219 5223 5227 5231 5235 5238 5242 5246 5250 5254 5258 5261 5264 5268 5271 5275 5278
5011 5008 5005 5004 5002 5001 5001 5000 4999 4998 4998 4999 4999 5000 5000 5001 5003 5005 5006 5009 5011 5014 5018 5022 5027 5032 5037 5042 5047 5052 5057 5063 5070 5078 5086 5095 5104 5113 5122 5130 5138 5145 5151 5157 5163 5169 5175 5180 5184 5188 5192 5195 5199 5202 5205 5209 5212 5216 5220 5224 5228 5231 5235 5239 5243 5247 5250 5254 5257 5260 5263 5267 5270 5273
5010 5006 5004 5002 5001 5000 5000 4999 4998 4998 4998 4998 4999 5000 5000 5001 5003 5004 5006 5009 5011 5014 5018 5022 5027 5031 5035 5040 5045 5050 5056 5063 5070 5078 5086 5094 5102 5111 5119 5128 5135 5142 5148 5154 5160 5166 5171 5176 5180 5184 5188 5192 5195 5198 5202 5206 5210 5213 5217 5221 5225 5228 5232 5236 5240 5243 5247 5250 5253 5256 5259 5262 5265 5268
5008 5005 5003 5002 5000 5000 4999 4998 4998 4998 4998 4998 4999 4999 5000 5002 5003 5004 5007 5009 5011 5014 5018 5022 5026 5030 5034 5039 5044 5049 5056 5063 5070 5077 5085 5092 5101 5109 5118 5126 5132 5139 5146 5152 5158 5163 5168 5173 5177 5181 5185 5188 5192 5196 5200 5203 5207 5211 5215 5219 5222 5226 5229 5233 5236 5240 5243 5246 5249 5252 5255 5258 5260 5263
5007 5004 5002 5001 5000 4999 4999 4998 4998 4999 4999 4999 4999 5000 5001 5002 5004 5005 5007 5009 5012 5015 5018 5022 5025 5029 5033 5038 5043 5049 5056 5063 5069 5076 5084 5092 5100 5109 5117 5124 5131 5138 5144 5149 5155 5160 5165 5170 5174 5178 5181 5185 5189 5193 5197 5201 5205 5209 5212 5216 5220 5223 5226 5230 5233 5236 5239 5242 5245 5248 5250 5253 5255 5257
5006 5004 5002 5000 5000 4999 4999 4999 4999 4999 4999 5000 5000 5001 5001 5003 5004 5006 5008 5010 5013 5015 5018 5022 5026 5030 5034 5039 5044 5050 5056 5063 5069 5077 5085 5093 5101 5109 5116 5122 5129 5136 5142 5147 5152 5157 5162 5166 5170 5174 5178 5182 5186 5190 5195 5199 5202 5206 5210 5214 5217 5220 5223 5227 5230 5233 5235 5238 5241 5243 5246 5248 5250 5252
5006 5004 5001 5000 5000 4999 4999 4999 4999 5000 5000 5000 5001 5002 5002 5003 5005 5006 5008 5011 5013 5017 5020 5024 5028 5032 5036 5041 5046 5051 5057 5064 5071 5078 5086 5094 5101 5108 5115 5122 5129 5134 5139 5145 5150 5155 5159 5163 5168 5172 5176 5180 5184 5188 5192 5196 5200 5204 5207 5211 5214 5217 5220 5223 5226 5229 5232 5234 5237 5239 5241 5243 5246 5248
5006 5004 5002 5000 5000 4999 4999 4999 4999 5000 5000 5001 5001 5002 5003 5004 5005 5007 5009 5012 5015 5018 5022 5025 5029 5033 5038 5042 5047 5053 5059 5065 5073 5080 5087 5095 5101 5108 5115 5122 5127 5133 5138 5143 5148 5153 5157 5161 5166 5169 5174 5178 5182 5186 5190 5194 5198 5201 5205 5208 5211 5214 5217 5220 5223 5226 5228 5230 5232 5235 5237 5239 5242 5244
5007 5005 5003 5001 5000 5000 5000 5000 5000 5000 5001 5002 5003 5003 5004 5006 5007 5009 5011 5014 5017 5020 5023 5027 5031 5035 5039 5044 5049 5055 5061 5068 5075 5082 5089 5095 5102 5109 5115 5121 5126 5131 5136 5142 5146 5151 5155 5160 5164 5168 5172 5176 5180 5184 5188 5192 5195 5199 5202 5205 5208 5211 5214 5217 5220 5222 5224 5227 5229 5231 5233 5235 5238 5240
5007 5006 5004 5002 5001 5000 5000 5000 5001 5002 5002 5003 5004 5005 5006 5008 5009 5011 5014 5016 5019 5022 5025 5029 5033 5037 5042 5047 5052 5058 5064 5070 5077 5084 5090 5097 5103 5109 5115 5120 5125 5130 5135 5140 5145 5149 5154 5158 5162 5166 5170 5174 5178 5182 5186 5190 5193 5196 5199 5202 5205 5208 5211 5214 5216 5219 5221 5223 5225 5227 5229 5232 5234 5235
5008 5006 5005 5004 5003 5002 5002 5002 5002 5003 5004 5005 5006 5007 5008 5010 5012 5014 5016 5019 5021 5024 5028 5032 5036 5040 5045 5050 5055 5061 5067 5073 5079 5085 5091 5097 5103 5109 5114 5119 5124 5129 5134 5139 5144 5148 5152 5156 5160 5164 5168 5172 5176 5180 5184 5187 5190 5193 5196 5199 5202 5205 5208 5211 5213 5215 5217 5219 5222 5224 5226 5228 5230 5232
5008 5007 5006 5005 5005 5004 5004 5004 5004 5005 5005 5006 5007 5009 5010 5012 5014 5016 5019 5021 5024 5027 5030 5034 5039 5043 5048 5053 5058 5064 5070 5076 5082 5087 5093 5099 5104 5109 5114 5119 5124 5129 5134 5138 5142 5146 5151 5155 5159 5163 5167 5171 5175 5178 5181 5185 5188 5191 5194 5197 5200 5203 5205 5208 5210 5212 5214 5216 5218 5221 5223 5225 5227 5228
5009 5008 5007 5006 5006 5006 5005 5006 5006 5006 5007 5008 5009 5011 5012 5014 5016 5018 5021 5024 5027 5030 5033 5037 5042 5046 5051 5056 5062 5067 5073 5078 5084 5089 5095 5100 5105 5110 5114 5119 5124 5129 5133 5137 5141 5145 5149 5153 5157 5161 5165 5169 5172 5176 5179 5183 5186 5189 5192 5195 5197 5200 5202 5204 5207 5209 5211 5213 5216 5218 5220 5221 5223 5224
5010 5009 5008 5007 5007 5007 5007 5007 5007 5008 5009 5010 5011 5013 5015 5016 5019 5021 5024 5027 5031 5034 5036 5040 5045 5050 5054 5059 5065 5070 5075 5080 5086 5090 5095 5101 5105 5110 5114 5119 5123 5128 5131 5135 5139 5143 5147 5151 5155 5159 5163 5167 5170 5174 5177 5180 5184 5187 5189 5192 5194 5197 5199 5202 5204 5206 5209 5211 5213 5215 5217 5218 5220 5221
5012 5011 5009 5009 5008 5008 5008 5008 5009 5010 5011 5012 5014 5015 5017 5019 5022 5024 5027 5030 5034 5037 5040 5043 5047 5053 5058 5062 5067 5072 5077 5082 5087 5092 5096 5101 5105 5110 5114 5118 5123 5126 5130 5134 5138 5142 5146 5150 5154 5158 5161 5165 5169 5172 5176 5178 5181 5184 5187 5189 5192 5194 5197 5199 5202 5204 5206 5208 5210 5212 5214 5215 5216 5218
5013 5012 5011 5011 5010 5010 5010 5010 5011 5012 5013 5015 5017 5018 5020 5022 5025 5027 5030 5034 5037 5041 5044 5047 5051 5055 5060 5065 5070 5074 5079 5084 5088 5093 5097 5101 5106 5110 5114 5118 5122 5126 5130 5134 5138 5142 5146 5150 5153 5156 5160 5163 5167 5170 5173 5176 5179 5182 5185 5187 5190 5192 5195 5197 5199 5201 5203 5205 5207 5209 5211 5212 5213 5215